{"data":{"norad_id":59322,"epoch":"2026-05-25T03:29:05.451072Z","epoch_age_seconds":62376,"freshness":"FRESH","line1":"1 59322U 24057C   26145.14520198  .00072307  00000+0  68916-3 0  9998","line2":"2 59322  42.9884  96.8205 0023768 170.4172 189.7151 15.65505599121743","mean_motion":15.65505599,"eccentricity":0.0023768,"inclination_deg":42.9884,"raan_deg":96.8205,"arg_perigee_deg":170.4172,"mean_anomaly_deg":189.7151,"bstar":0.00068916,"rev_number":12174,"period_min":91.983062910783,"perigee_km":355.74184070287,"apogee_km":387.82827018563,"semimajor_km":6749.9220554442,"source":"CELESTRAK","updated_at":"2026-05-25T13:38:18.903015Z"}}